TimeEDT,TemperatureF,Dew PointF,Humidity,Sea Level PressureIn,VisibilityMPH,Wind Direction,Wind SpeedMPH,Gust SpeedMPH,PrecipitationIn,Events,Conditions,WindDirDegrees,DateUTC
12:53 AM,57.0,46.9,69,30.25,10.0,SSE,5.8,-,N/A,,Partly Cloudy,150,2013-10-13 04:53:00
1:53 AM,57.0,51.1,81,30.24,10.0,SSE,9.2,-,N/A,,Clear,150,2013-10-13 05:53:00
2:53 AM,55.9,51.1,84,30.25,10.0,SSE,6.9,-,N/A,,Clear,150,2013-10-13 06:53:00
3:53 AM,55.0,51.1,86,30.25,10.0,SSE,3.5,-,N/A,,Clear,160,2013-10-13 07:53:00
4:24 AM,57.2,53.6,88,30.26,10.0,SSE,6.9,-,N/A,,Mostly Cloudy,160,2013-10-13 08:24:00
4:53 AM,57.0,53.1,87,30.26,10.0,SSE,3.5,-,N/A,,Overcast,160,2013-10-13 08:53:00
5:53 AM,57.9,53.1,84,30.27,10.0,SE,4.6,-,N/A,,Overcast,130,2013-10-13 09:53:00
6:53 AM,57.0,53.1,87,30.29,10.0,SE,4.6,-,N/A,,Overcast,140,2013-10-13 10:53:00
7:53 AM,57.0,52.0,83,30.30,10.0,SE,3.5,-,N/A,,Overcast,140,2013-10-13 11:53:00
8:20 AM,57.2,51.8,82,30.30,10.0,SSE,5.8,-,N/A,,Overcast,150,2013-10-13 12:20:00
8:53 AM,60.1,52.0,75,30.31,10.0,South,6.9,-,N/A,,Mostly Cloudy,170,2013-10-13 12:53:00
9:53 AM,61.0,51.1,70,30.31,10.0,South,5.8,-,N/A,,Overcast,180,2013-10-13 13:53:00
10:53 AM,64.9,52.0,63,30.32,10.0,South,9.2,-,N/A,,Mostly Cloudy,180,2013-10-13 14:53:00
11:53 AM,64.0,51.1,63,30.31,10.0,South,11.5,20.7,N/A,,Overcast,170,2013-10-13 15:53:00
12:53 PM,68.0,52.0,56,30.29,10.0,SSW,8.1,-,N/A,,Overcast,200,2013-10-13 16:53:00
1:53 PM,71.1,54.0,55,30.27,10.0,SSW,5.8,-,N/A,,Overcast,210,2013-10-13 17:53:00
2:53 PM,70.0,54.0,57,30.26,10.0,SSW,6.9,-,N/A,,Overcast,200,2013-10-13 18:53:00
3:53 PM,69.1,55.0,61,30.25,10.0,SSE,3.5,-,N/A,,Overcast,160,2013-10-13 19:53:00
4:53 PM,68.0,54.0,61,30.25,10.0,SE,5.8,-,N/A,,Overcast,140,2013-10-13 20:53:00
5:53 PM,68.0,54.0,61,30.26,10.0,Variable,4.6,-,0.00,,Overcast,0,2013-10-13 21:53:00
6:53 PM,66.0,52.0,60,30.27,10.0,South,4.6,-,N/A,,Overcast,190,2013-10-13 22:53:00
7:53 PM,64.9,52.0,63,30.28,10.0,SSW,3.5,-,N/A,,Overcast,200,2013-10-13 23:53:00
8:53 PM,63.0,52.0,67,30.28,10.0,South,5.8,-,N/A,,Overcast,180,2013-10-14 00:53:00
9:53 PM,64.0,52.0,65,30.29,10.0,South,5.8,-,N/A,,Overcast,190,2013-10-14 01:53:00
10:53 PM,62.1,53.1,72,30.29,9.0,SSW,6.9,-,0.00,Rain,Light Rain,210,2013-10-14 02:53:00
11:53 PM,60.1,52.0,75,30.29,10.0,South,4.6,-,0.00,,Overcast,180,2013-10-14 03:53:00